Regional Weather Roundup
Issued by NWS Portland, ME

Current Version | Previous Version | Text Only | Print | Product List | Glossary Off
Versions: 1 2 3 4 5 6 7 8 9 10 11 12 13 14 15 16 17 18 19 20 21 22 23 24 25 26 27 28 29 30 31 32 33 34 35 36 37 38 39 40 41 42 43 44 45 46 47 48 49 50
000 ASUS41 KGYX 230010 RWRGYX WEATHER ROUNDUP FOR MAINE AND NEW HAMPSHIRE NATIONAL WEATHER SERVICE GRAY ME 700 PM EST WED NOV 22 2017 MEZ002-005-006-010-012-015-018-020-021-024-026-027-029-230100- MAINE CITY SKY/WX TMP DP RH WIND PRES REMARKS PORTLAND LGT RAIN 40 36 86 NW13G22 29.81S 6HR MIN TEMP: 40; 6HR MAX TEMP: 42; 6HR PCP: 0.24; SANFORD N/A 39 37 92 NW5 29.82S BAR HARBOR LGT RAIN 43 41 93 N13G21 29.72F WISCASSET LGT RAIN 40 39 97 VRB6 29.79S 6HR MIN TEMP: 40; 6HR MAX TEMP: 51; 6HR PCP: 0.49; ROCKLAND LGT RAIN 41 39 93 N8G22 29.74S FRYEBURG CLOUDY 34 34 100 SW3 29.83S 6HR MIN TEMP: 34; 6HR MAX TEMP: 37; 6HR PCP: 0.13; LEWISTONAUBURN LGT RAIN 38 35 89 N13G20 29.81S AUGUSTA LGT RAIN 38 36 92 N13 29.80F 6HR MIN TEMP: 37; 6HR MAX TEMP: 39; 6HR PCP: 0.46; WATERVILLE LGT RAIN 37 36 96 N8 29.77S BANGOR LGT RAIN 39 37 92 N16G23 29.79R 6HR MIN TEMP: 39; 6HR MAX TEMP: 44; 6HR PCP: 0.72; GREENVILLE N/A 32 32 100 NW14G23 29.76S 6HR MIN TEMP: 32; 6HR MAX TEMP: 36; 6HR PCP: 0.17; MILLINOCKET LGT RAIN 35 35 100 NW3 29.81F FOG 6HR MIN TEMP: 34; 6HR MAX TEMP: 36; 6HR PCP: 0.39; HOULTON LGT RAIN 36 36 100 N8 29.78F 6HR MIN TEMP: 36; 6HR MAX TEMP: 43; 6HR PCP: 0.43; PRESQUE ISLE LGT SNOW 33 33 100 NW3 29.82F FOG 6HR MIN TEMP: 33; 6HR MAX TEMP: 39; 6HR PCP: 0.20; FRENCHVILLE LGT SNOW 32 30 92 NW7 29.80F VSB 3/4 6HR MIN TEMP: 31; 6HR MAX TEMP: 34; 6HR PCP: 0.08; CARIBOU LGT SNOW 34 32 92 CALM 29.80F FOG 6HR MIN TEMP: 34; 6HR MAX TEMP: 39; 6HR PCP: 0.18; $$ NHZ002-005-008-009-011-012-014-230100- NEW HAMPSHIRE CITY SKY/WX TMP DP RH WIND PRES REMARKS PORTSMOUTH CLOUDY 40 35 82 NW13 29.82R ROCHESTER CLOUDY 39 34 82 NW16G24 29.82R 6HR MIN TEMP: 39; 6HR MAX TEMP: 43; 6HR PCP: 0.16; NASHUA PTCLDY 38 33 82 NW13 29.89R MANCHESTER PTCLDY 38 31 76 NW12G21 29.87R 6HR MIN TEMP: 38; 6HR MAX TEMP: 43; 6HR PCP: 0.06; CONCORD CLOUDY 37 31 78 NW13 29.88R 6HR MIN TEMP: 37; 6HR MAX TEMP: 41; 6HR PCP: 0.12; LACONIA CLEAR 35 31 85 W9G18 29.87R PLYMOUTH CLOUDY 37 29 71 NW8G18 29.90R BERLIN CLOUDY 34 31 88 NW5 29.88R 6HR MIN TEMP: 33; 6HR MAX TEMP: 35; 6HR PCP: TRACE; WHITEFIELD CLOUDY 34 31 88 NW7 29.91R 6HR MIN TEMP: 33; 6HR MAX TEMP: 36; 6HR PCP: 0.11; JAFFREY CLOUDY 37 30 75 VRB5G20 29.88S 6HR MIN TEMP: 37; 6HR MAX TEMP: 44; 6HR PCP: 0.03; KEENE CLOUDY 38 31 76 NW7 29.93R LEBANON CLOUDY 37 31 78 N10 29.94R 6HR MIN TEMP: 36; 6HR MAX TEMP: 39; 6HR PCP: 0.03; MT WASHINGTON DRFTSNOW 14 14 100 NW40G51 N/A VSB 1/16WCI -9 6HR MIN TEMP: 13; 6HR MAX TEMP: 27; 6HR PCP: 0.23; $$ VTZ005-007-008-230100- VERMONT CITY SKY/WX TMP DP RH WIND PRES REMARKS ST JOHNSBURY N/A 35 31 85 MISG 29.93R MONTPELIER CLOUDY 32 28 85 NW14 29.98R BURLINGTON CLOUDY 34 26 72 NW14 30.03R $$ MAZ007-012-024-CTZ003-RIZ002-NYZ038-NYZ072-230100- SOUTHERN NEW ENGLAND AND NY CITY SKY/WX TMP DP RH WIND PRES REMARKS BOSTON PTCLDY 42 34 73 NW21G30 29.85R WORCESTER CLEAR 35 28 75 NW16G24 29.86S NANTUCKET CLOUDY 46 45 96 NW26G35 29.77R FOG PROVIDENCE PTCLDY 44 37 76 NW17G29 29.88R HARTFORD PTCLDY 39 28 64 NW12G23 29.95R ALBANY CLOUDY 37 28 70 W17G24 30.04R NEW YORK CITY CLOUDY 43 28 55 NW18G29 30.01R $$ ANZ081-ANZ082-ANZ150-NHZ014-MEZ023>029-230100- COASTAL MARINE OBSERVATIONS STATION/POSITION TIME TEMP WIND PRES WAVE AIR SEA DIR/SP/G HT/PER (UTC) (F) (DEG/KT/KT) (MB) (FT/S) MOUNT DESERT ROC 0000 49 360/ 12/ 13 1004.3F MATINICUS ROCK 2300 49 50/ 8/ 10 1005.4F ISLE OF SHOALS 2300 42 310/ 27/ 28 1008.2F JEFFREYS LEDGE 2336 49 N/A 5/ 4 CASHES LEDGE BUO 2250 49 51 1005.5 3/ 6 GEORGES BANK BUO 2250 60 54 1001.9 12/ 8 $$ .............KEY.............. WCI - WIND CHILL TC - TEMPERATURE IN CELSIUS VSB - VISIBILITY IN MILES HX - HEAT INDEX FAIR- INDICATES FEW OR NO CLOUDS BELOW 12,000 FT, WITH NO SIGNIFICANT WEATHER AND/OR OBSTRUCTIONS TO VISIBILITY.

USA.gov is the U.S. government's official web portal to all federal, state and local government web resources and services.